Location: Noordwijk
(52.2400°N, 4.4500°E)
Time: 15:03:50
(UTC+00:00)

CAS-4A - Pass Details

Date: 08 December 2022
Orbit: 514 x 531 km, 43.0° (Epoch: 01 February)

Event Time Altitude Azimuth Distance (km) Brightness Sun altitude
Exits shadow 05:05:57 13° 194° (SSW) 1,614 ? -22.0°
Maximum altitude 05:07:52 17° 162° (SSE) 1,406 ? -21.7°
Drops below altitude 10° 05:10:29 10° 122° (ESE) 1,779 ? -21.3°
Sets 05:13:21 0° 102° (ESE) 2,675 ? -20.9°
